Location: Altleiningen
(49.5078°N, 8.0741°E)
Time: 11:29:46
(UTC+00:00)

ASTEX 1 - Pass Details

Date: 03 March 2021
Orbit: 720 x 743 km, 92.7° (Epoch: 12 April)

Event Time Altitude Azimuth Distance (km) Brightness Sun altitude
Rises 19:19:35 0° 6° (N) 3,152 6.8 -21.0°
Reaches altitude 10° 19:21:53 10° 8° (N) 2,224 6.0 -21.4°
Maximum altitude 19:26:49 77° 95° (E) 745 3.2 -22.2°
Enters shadow 19:30:13 20° 180° (S) 1,635 5.0 -22.7°
